Погода в Пеньках

Украина / Хмельницкая область     49°55′18″N   27°04′54″E
темп.,
°C
ветер,
м/с
пор.,
м/с
влажн.,
%
обл.,
%
осадки,
мм/ч
давл.,
гПа
погр.,
м
26 июля, пн
пн2600:00+19юв48688 0.0 1019125
03:00+19юв496454 0.0 1018227
06:00+16юв487228 0.0 1019125
09:00+21юв596182 0.0 1018346
12:00+24ююв695351 0.0 1018803
15:00+28ю773957 0.0 10172170
18:00+24юв385873 0.0 1017211
21:00+21юв4771100 0.0 1017120
27 июля, вт
вт2700:00+19ююв410755 0.0 1018176
03:00+18юв4107338 0.0 1018181
06:00+18ююв513683 0.0 1017250
09:00+21ююв51175100 1.4 1016346
12:00+25ююв585859 0.3 1016548
15:00+30ююз564485 0.3 10151654
18:00+26ююв335514 0.0 101449
21:00+23ююз3679100 0.3 1013111
28 июля, ср
ср2800:00+19ю4118856 1.3 1015182
03:00+18юз379365 4.0 1014118
06:00+18сз37961 0.0 1014170
09:00+22сз348380 0.0 1015368
12:00+26сз346045 0.0 10151161
15:00+29зсз33466 0.0 10141560
18:00+28зсз23465 0.0 10141564
21:00+23ссз22660 0.0 101413
29 июля, чт
чт2900:00+21юв22715 0.0 101418
03:00+20юв227666 0.0 101323
06:00+19ю228576 0.6 101326
09:00+24ю45756 0.9 1012380
12:00+28зюз56533 0.0 10121163
15:00+30з665126 0.0 10111585
18:00+28з685352 0.0 10111644
21:00+22зсз5107641 0.0 1012386
30 июля, пт
пт3000:00+19з389398 0.0 1013161
03:00+18зсз369622 0.0 1013126
06:00+17зсз34961 0.0 101385
09:00+22сз23720 0.0 1013435
12:00+27з23490 0.0 10121184
15:00+29зюз33390 0.0 10101471
18:00+30зюз23390 0.0 10091483
21:00+24ююв23575 0.0 100817